This is the latest recevied weather packets stored in our database for station/object K6CED. If no packets are shown the sender has not sent any weather packets the latest 10 day(s).
| Time | Temp. | Humidity | Pressure | Rain* | Wind** | Luminosity | Snow |
|---|---|---|---|---|---|---|---|
| 1778008971 | 16.67° C | 63% | 1017.4 hPa | 0 mm | - | 250 W/m² | - |
| 1778008669 | 16.11° C | 63% | 1017.4 hPa | 0 mm | - | 1105 W/m² | - |
| 1778008367 | 16.11° C | 63% | 1017.3 hPa | 0 mm | - | 318 W/m² | - |
| 1778008063 | 16.11° C | 64% | 1017.5 hPa | 0 mm | - | 382 W/m² | - |
| 1778007758 | 15.56° C | 64% | 1017.3 hPa | 0 mm | - | 174 W/m² | - |
| 1778007454 | 16.11° C | 62% | 1017.3 hPa | 0 mm | - | 100 W/m² | - |
| 1778007151 | 15.56° C | 61% | 1017.2 hPa | 0 mm | - | 139 W/m² | - |
| 1778006847 | 16.11° C | 60% | 1017.3 hPa | 0 mm | - | 114 W/m² | - |
| 1778006545 | 16.11° C | 61% | 1017.4 hPa | 0 mm | - | 130 W/m² | - |
| 1778006241 | 16.11° C | 62% | 1017.4 hPa | 0 mm | - | 141 W/m² | - |
| 1778005939 | 16.11° C | 63% | 1017.3 hPa | 0 mm | - | 184 W/m² | - |
| 1778005635 | 16.67° C | 62% | 1017.4 hPa | 0 mm | - | 237 W/m² | - |
| 1778005332 | 16.67° C | 59% | 1017.4 hPa | 0 mm | - | 356 W/m² | - |
| 1778005028 | 17.78° C | 59% | 1017.3 hPa | 0 mm | - | 955 W/m² | - |
| 1778004726 | 16.67° C | 61% | 1017.4 hPa | 0 mm | - | 977 W/m² | - |
| 1778004422 | 16.67° C | 62% | 1017.3 hPa | 0 mm | - | 981 W/m² | - |
| 1778004119 | 16.67° C | 64% | 1017.4 hPa | 0 mm | - | 1045 W/m² | - |
| 1778003815 | 16.67° C | 65% | 1017.4 hPa | 0 mm | - | 1059 W/m² | - |
| 1778003512 | 16.11° C | 68% | 1017.5 hPa | 0 mm | - | 1095 W/m² | - |
| 1778003208 | 15.56° C | 70% | 1017.4 hPa | 0 mm | - | 303 W/m² | - |
| 1778002904 | 15° C | 72% | 1017.1 hPa | 0 mm | - | 432 W/m² | - |
| 1778002601 | 14.44° C | 72% | 1017.4 hPa | 0 mm | - | 181 W/m² | - |
| 1778002298 | 15° C | 70% | 1017.2 hPa | 0 mm | - | 117 W/m² | - |
| 1778001996 | 14.44° C | 69% | 1017.3 hPa | 0 mm | - | 167 W/m² | - |
| 1778001692 | 15.56° C | 70% | 1017.2 hPa | 0 mm | - | 342 W/m² | - |
* Rain latest hour (hover to see other rain measurements)
** Current wind speed in m/s (hover to see current wind gust speed)